| time (UTC) | temp F | wind direction | speed MPH | gust MPH | rain 1hr in | rain 24hr in | rain mn in | humidity % | barometer mb |
| 20260903231513 | 90 | 146 | 2.0 | 8.0 | 0.00 | 0.00 | 0.00 | 61 | 1011.7 |
| 20260903230040 | 91 | 352 | 1.0 | 14.0 | 0.00 | 0.00 | 0.00 | 60 | 1011.7 |
| 20260903224531 | 93 | 275 | 3.0 | 15.0 | 0.00 | 0.00 | 0.00 | 60 | 1011.6 |
| 20260903223032 | 94 | 63 | 2.0 | 10.0 | 0.00 | 0.00 | 0.00 | 58 | 1011.3 |
| 20260903221513 | 94 | 295 | 2.0 | 9.0 | 0.00 | 0.00 | 0.00 | 57 | 1011.3 |
| 20260903220018 | 94 | 123 | 2.0 | 8.0 | 0.00 | 0.00 | 0.00 | 53 | 1011.3 |
| 20260903214537 | 96 | 84 | 1.0 | 6.0 | 0.00 | 0.00 | 0.00 | 51 | 1011.2 |
| 20260903213029 | 95 | 342 | 1.0 | 6.0 | 0.00 | 0.00 | 0.00 | 52 | 1011.4 |
| 20260903211530 | 96 | 53 | 1.0 | 8.0 | 0.00 | 0.00 | 0.00 | 50 | 1011.4 |
| 20260903210016 | 98 | 129 | 2.0 | 6.0 | 0.00 | 0.00 | 0.00 | 48 | 1011.7 |
| 20260903204524 | 97 | 27 | 1.0 | 6.0 | 0.00 | 0.00 | 0.00 | 50 | 1011.7 |
| 20260903203035 | 97 | 188 | 1.0 | 3.0 | 0.00 | 0.00 | 0.00 | 49 | 1012.0 |
| 20260903201535 | 101 | 179 | 1.0 | 6.0 | 0.00 | 0.00 | 0.00 | 44 | 1012.2 |
| 20260903200041 | 101 | 26 | 1.0 | 7.0 | 0.00 | 0.00 | 0.00 | 44 | 1012.3 |
| 20260903194520 | 100 | 105 | 1.0 | 7.0 | 0.00 | 0.00 | 0.00 | 46 | 1012.3 |
| 20260903193027 | 96 | 333 | 0.0 | 6.0 | 0.00 | 0.00 | 0.00 | 49 | 1012.5 |
| 20260903191505 | 94 | 134 | 0.0 | 2.0 | 0.00 | 0.00 | 0.00 | 54 | 1012.9 |
| 20260903190012 | 93 | 62 | 1.0 | 5.0 | 0.00 | 0.00 | 0.00 | 54 | 1013.1 |
| 20260903184516 | 93 | 113 | 0.0 | 5.0 | 0.00 | 0.00 | 0.00 | 54 | 1013.5 |
| 20260903183004 | 94 | 124 | 1.0 | 3.0 | 0.00 | 0.00 | 0.00 | 52 | 1013.7 |
| 20260903181505 | 95 | 238 | 1.0 | 9.0 | 0.00 | 0.00 | 0.00 | 52 | 1013.9 |
| 20260903180031 | 96 | 237 | 1.0 | 8.0 | 0.00 | 0.00 | 0.00 | 50 | 1014.1 |
| 20260903174510 | 93 | 215 | 0.0 | 2.0 | 0.00 | 0.00 | 0.00 | 55 | 1014.3 |
| 20260903173033 | 94 | 218 | 1.0 | 6.0 | 0.00 | 0.00 | 0.00 | 54 | 1014.4 |
| 20260903171510 | 96 | 108 | 2.0 | 7.0 | 0.00 | 0.00 | 0.00 | 52 | 1014.5 |
| 20260903170043 | 92 | 266 | 2.0 | 6.0 | 0.00 | 0.00 | 0.00 | 59 | 1014.5 |
| 20260903164510 | 90 | 124 | 1.0 | 3.0 | 0.00 | 0.00 | 0.00 | 62 | 1014.5 |
| 20260903163017 | 90 | 270 | 3.0 | 7.0 | 0.00 | 0.00 | 0.00 | 61 | 1014.5 |
| 20260903161528 | 90 | 199 | 2.0 | 10.0 | 0.00 | 0.00 | 0.00 | 61 | 1014.4 |
| 20260903160039 | 91 | 282 | 3.0 | 11.0 | 0.00 | 0.00 | 0.00 | 60 | 1014.5 |
| 20260903154512 | 90 | 259 | 5.0 | 10.0 | 0.00 | 0.00 | 0.00 | 63 | 1014.6 |
| 20260903153017 | 87 | 289 | 1.0 | 7.0 | 0.00 | 0.00 | 0.00 | 69 | 1014.5 |
| 20260903151521 | 85 | 269 | 0.0 | 6.0 | 0.00 | 0.00 | 0.00 | 71 | 1014.4 |
| 20260903150038 | 85 | 225 | 1.0 | 7.0 | 0.00 | 0.00 | 0.00 | 72 | 1014.4 |
| 20260903144508 | 84 | 183 | 2.0 | 9.0 | 0.00 | 0.00 | 0.00 | 75 | 1014.2 |
| 20260903143014 | 83 | 238 | 2.0 | 8.0 | 0.00 | 0.00 | 0.00 | 77 | 1014.3 |
| 20260903141526 | 82 | 230 | 2.0 | 7.0 | 0.00 | 0.00 | 0.00 | 79 | 1014.2 |
| 20260903140038 | 81 | 342 | 1.0 | 7.0 | 0.00 | 0.00 | 0.00 | 81 | 1014.3 |
| 20260903134533 | 81 | 284 | 1.0 | 7.0 | 0.00 | 0.00 | 0.00 | 83 | 1014.2 |
| 20260903133010 | 80 | 298 | 1.0 | 8.0 | 0.00 | 0.00 | 0.00 | 84 | 1014.3 |
| 20260903131516 | 80 | 254 | 1.0 | 7.0 | 0.00 | 0.00 | 0.00 | 84 | 1014.3 |
| 20260903130031 | 80 | 267 | 0.0 | 7.0 | 0.00 | 0.00 | 0.00 | 85 | 1014.3 |
| 20260903124527 | 79 | 234 | 1.0 | 5.0 | 0.00 | 0.00 | 0.00 | 85 | 1014.1 |
| 20260903123037 | 79 | 194 | 1.0 | 3.0 | 0.00 | 0.00 | 0.00 | 85 | 1014.1 |
| 20260903121515 | 79 | 225 | 1.0 | 8.0 | 0.00 | 0.00 | 0.00 | 85 | 1014.1 |
| 20260903120020 | 80 | 117 | 0.0 | 5.0 | 0.00 | 0.00 | 0.00 | 85 | 1014.1 |
| 20260903114531 | 80 | 309 | 1.0 | 3.0 | 0.00 | 0.00 | 0.00 | 85 | 1014.0 |
| 20260903113029 | 80 | 103 | 0.0 | 10.0 | 0.00 | 0.00 | 0.00 | 84 | 1014.0 |
| 20260903111533 | 80 | 172 | 0.0 | 9.0 | 0.00 | 0.00 | 0.00 | 84 | 1014.0 |
| 20260903110019 | 80 | 247 | 1.0 | 8.0 | 0.00 | 0.00 | 0.00 | 84 | 1013.9 |
| 20260903104526 | 80 | 277 | 1.0 | 7.0 | 0.00 | 0.00 | 0.00 | 84 | 1013.9 |
| 20260903103027 | 80 | 237 | 1.0 | 4.0 | 0.00 | 0.00 | 0.00 | 85 | 1013.7 |
| 20260903101511 | 79 | 190 | 1.0 | 6.0 | 0.00 | 0.00 | 0.00 | 85 | 1013.7 |
| 20260903100028 | 80 | 88 | 1.0 | 9.0 | 0.00 | 0.00 | 0.00 | 84 | 1013.6 |
| 20260903094528 | 80 | 283 | 1.0 | 6.0 | 0.00 | 0.00 | 0.00 | 84 | 1013.7 |
| 20260903093010 | 80 | 235 | 0.0 | 4.0 | 0.00 | 0.00 | 0.00 | 83 | 1013.8 |
| 20260903091507 | 80 | 228 | 1.0 | 6.0 | 0.00 | 0.00 | 0.00 | 83 | 1013.9 |
| 20260903090019 | 80 | 122 | 2.0 | 6.0 | 0.00 | 0.00 | 0.00 | 83 | 1013.9 |
| 20260903084529 | 80 | 119 | 1.0 | 6.0 | 0.00 | 0.00 | 0.00 | 83 | 1014.0 |
| 20260903083030 | 80 | 229 | 1.0 | 3.0 | 0.00 | 0.00 | 0.00 | 83 | 1014.0 |
| 20260903081509 | 80 | 219 | 1.0 | 6.0 | 0.00 | 0.00 | 0.00 | 82 | 1014.0 |
| 20260903080011 | 80 | 265 | 0.0 | 3.0 | 0.00 | 0.00 | 0.00 | 82 | 1014.0 |
| 20260903074518 | 80 | 298 | 0.0 | 4.0 | 0.00 | 0.00 | 0.00 | 81 | 1014.0 |
| 20260903073026 | 80 | 170 | 2.0 | 7.0 | 0.00 | 0.00 | 0.00 | 80 | 1014.1 |
| 20260903071528 | 80 | 247 | 1.0 | 4.0 | 0.00 | 0.00 | 0.00 | 79 | 1014.2 |
| 20260903070011 | 81 | 188 | 0.0 | 5.0 | 0.00 | 0.00 | 0.00 | 77 | 1014.4 |
| 20260903064516 | 81 | 145 | 0.0 | 4.0 | 0.00 | 0.00 | 0.00 | 77 | 1014.4 |
| 20260903063021 | 81 | 123 | 0.0 | 2.0 | 0.00 | 0.00 | 0.00 | 76 | 1014.5 |
| 20260903061528 | 81 | 51 | 0.0 | 2.0 | 0.00 | 0.00 | 0.00 | 76 | 1014.5 |
| 20260903060032 | 80 | 157 | 0.0 | 5.0 | 0.00 | 0.00 | 0.00 | 77 | 1014.5 |
| 20260903054522 | 80 | 156 | 0.0 | 6.0 | 0.00 | 0.00 | 0.00 | 78 | 1014.5 |
| 20260903053020 | 80 | 123 | 1.0 | 7.0 | 0.00 | 0.00 | 0.00 | 78 | 1014.3 |
| 20260903051528 | 80 | 130 | 0.0 | 4.0 | 0.00 | 0.00 | 0.00 | 78 | 1014.5 |
| 20260903050029 | 80 | 79 | 1.0 | 4.0 | 0.00 | 0.00 | 0.00 | 78 | 1014.3 |
| 20260903044535 | 80 | 38 | 0.0 | 5.0 | 0.00 | 0.00 | 0.00 | 77 | 1014.3 |
| 20260903043017 | 81 | 311 | 0.0 | 6.0 | 0.00 | 0.00 | 0.00 | 76 | 1014.3 |
| 20260903041524 | 81 | 161 | 0.0 | 8.0 | 0.00 | 0.00 | 0.00 | 74 | 1014.3 |
| 20260903040031 | 82 | 238 | 0.0 | 2.0 | 0.00 | 0.00 | 0.00 | 72 | 1014.3 |
| 20260903034536 | 83 | 123 | 0.0 | 6.0 | 0.00 | 0.00 | 0.00 | 69 | 1014.3 |
| 20260903033038 | 84 | 142 | 1.0 | 7.0 | 0.00 | 0.00 | 0.00 | 65 | 1014.4 |
| 20260903031522 | 85 | 169 | 1.0 | 5.0 | 0.00 | 0.00 | 0.00 | 62 | 1014.0 |
| 20260903030030 | 86 | 90 | 0.0 | 3.0 | 0.00 | 0.00 | 0.00 | 59 | 1013.7 |
| 20260903024531 | 86 | 148 | 2.0 | 9.0 | 0.00 | 0.00 | 0.00 | 61 | 1013.3 |
| 20260903023031 | 85 | 91 | 0.0 | 0.0 | 0.00 | 0.00 | 0.00 | 62 | 1012.8 |
| 20260903021532 | 86 | 64 | 0.0 | 1.0 | 0.00 | 0.00 | 0.00 | 60 | 1012.6 |
| 20260903020026 | 86 | 38 | 0.0 | 1.0 | 0.00 | 0.00 | 0.00 | 59 | 1012.3 |
| 20260903014503 | 87 | 185 | 0.0 | 2.0 | 0.00 | 0.00 | 0.00 | 58 | 1012.1 |
| 20260903013012 | 87 | 163 | 0.0 | 1.0 | 0.00 | 0.00 | 0.00 | 57 | 1012.1 |
| 20260903011515 | 87 | 162 | 0.0 | 2.0 | 0.00 | 0.00 | 0.00 | 57 | 1012.1 |
| 20260903010025 | 88 | 28 | 0.0 | 2.0 | 0.00 | 0.00 | 0.00 | 58 | 1012.0 |
| 20260903004535 | 88 | 142 | 0.0 | 2.0 | 0.00 | 0.00 | 0.00 | 58 | 1012.0 |
| 20260903003009 | 89 | 122 | 0.0 | 3.0 | 0.00 | 0.00 | 0.00 | 56 | 1012.1 |
| 20260903001516 | 90 | 157 | 0.0 | 4.0 | 0.00 | 0.00 | 0.00 | 53 | 1012.0 |
| 20260903000020 | 92 | 84 | 0.0 | 3.0 | 0.00 | 0.00 | 0.00 | 51 | 1012.3 |
| 20260902234530 | 93 | 209 | 1.0 | 4.0 | 0.00 | 0.00 | 0.00 | 51 | 1012.2 |
| 20260902233029 | 93 | 23 | 0.0 | 2.0 | 0.00 | 0.00 | 0.00 | 50 | 1011.8 |